,,PA_Meas_PMT16A,,PR_Meas_QMR101_102,,RH_Meas_QMH101,,SR_Meas_QMS101,,TA_Meas_QMH101,,GenWind,,GenWind,
time,status,PA,status,PR,status,RH,status,SR,status,TA,status,DirAvg,status,SpdAvg,
2015-12-23, 07:22:04,VALID,920.418,VALID,0,VALID,104,VALID,105.722,VALID,19.5873,VALID,283,VALID,0.660547,
2015-12-23, 07:26:04,VALID,920.427,VALID,0,VALID,104,VALID,81.9776,VALID,19.6833,VALID,289,VALID,0,
2015-12-23, 07:29:04,VALID,920.436,VALID,0,VALID,104,VALID,131.293,VALID,19.8603,VALID,288,VALID,0,
2015-12-23, 07:30:04,VALID,920.436,VALID,0,VALID,104,VALID,136.88,VALID,19.8783,VALID,288,VALID,0,
2015-12-23, 07:31:04,VALID,920.446,VALID,0,VALID,104,VALID,119.904,VALID,19.8978,VALID,355,VALID,0,
2015-12-23, 07:32:04,VALID,920.483,VALID,0,VALID,104,VALID,103.788,VALID,19.9173,VALID,2,VALID,0,
2015-12-23, 07:33:04,VALID,920.497,VALID,0,VALID,104,VALID,135.376,VALID,19.9173,VALID,20,VALID,0,
2015-12-23, 07:34:04,VALID,920.51,VALID,0,VALID,104,VALID,191.782,VALID,19.9953,VALID,20,VALID,0,
2015-12-23, 07:35:04,VALID,920.551,VALID,0,VALID,104,VALID,131.83,VALID,20.0148,VALID,20,VALID,0,
2015-12-23, 07:36:04,VALID,920.57,VALID,0,VALID,104,VALID,91.325,VALID,20.0538,VALID,20,VALID,0,
2015-12-23, 07:37:04,VALID,920.588,VALID,0,VALID,104,VALID,93.5812,VALID,19.9968,VALID,229,VALID,1.2918,
2015-12-23, 07:38:04,VALID,920.605,VALID,0,VALID,104,VALID,105.83,VALID,20.0163,VALID,274,VALID,0.603516,
2015-12-23, 07:39:04,VALID,920.64,VALID,0,VALID,104,VALID,132.26,VALID,20.0343,VALID,59,VALID,0.378516,
2015-12-23, 07:40:04,VALID,920.681,VALID,0,VALID,104,VALID,120.334,VALID,20.0928,VALID,47,VALID,0.577734,
2015-12-23, 07:41:04,VALID,920.704,VALID,0,VALID,104,VALID,103.788,VALID,20.0538,VALID,302,VALID,0,
2015-12-23, 07:42:04,VALID,920.735,VALID,0,VALID,104,VALID,97.9863,VALID,20.0733,VALID,339,VALID,0,
2015-12-23, 07:45:04,VALID,920.785,VALID,0,VALID,104,VALID,109.805,VALID,20.1123,VALID,345,VALID,0,
2015-12-23, 07:46:04,VALID,920.78,VALID,0,VALID,104,VALID,177.278,VALID,20.1513,VALID,6,VALID,0.394141,
2015-12-23, 07:47:04,VALID,920.823,VALID,0,VALID,104,VALID,259.041,VALID,20.1513,VALID,18,VALID,1.13437,
2015-12-23, 07:48:04,VALID,920.798,VALID,0,VALID,104,VALID,235.404,VALID,20.2098,VALID,15,VALID,0.730859,
2015-12-23, 07:49:04,VALID,920.807,VALID,0,VALID,104,VALID,183.08,VALID,20.2489,VALID,319,VALID,0,
2015-12-23, 07:50:04,VALID,920.81,VALID,0,VALID,104,VALID,141.07,VALID,20.2293,VALID,314,VALID,0.557422,
2015-12-23, 07:51:04,VALID,920.813,VALID,0,VALID,104,VALID,176.418,VALID,20.2879,VALID,338,VALID,0,
2015-12-23, 07:52:04,VALID,920.822,VALID,0,VALID,104,VALID,205.105,VALID,20.3464,VALID,316,VALID,0.223828,
2015-12-23, 07:53:04,VALID,920.85,VALID,0,VALID,104,VALID,239.057,VALID,20.3854,VALID,358,VALID,0.980859,
2015-12-23, 07:54:04,VALID,920.852,VALID,0,VALID,104,VALID,258.826,VALID,20.3854,VALID,315,VALID,0.203125,
2015-12-23, 07:55:04,VALID,920.847,VALID,0,VALID,104,VALID,141.93,VALID,20.4423,VALID,6,VALID,0.701172,
2015-12-23, 07:56:04,VALID,920.885,VALID,0,VALID,104,VALID,151.599,VALID,20.4829,VALID,331,VALID,1.46836,
2015-12-23, 07:57:04,VALID,920.87,VALID,0,VALID,104,VALID,190.708,VALID,20.4634,VALID,9,VALID,1.28008,
2015-12-23, 07:58:04,VALID,920.89,VALID,0,VALID,104,VALID,165.244,VALID,20.4813,VALID,4,VALID,0.781641,
2015-12-23, 07:59:04,VALID,920.915,VALID,0,VALID,104,VALID,170.079,VALID,20.4618,VALID,44,VALID,0.0417969,
2015-12-23, 08:00:04,VALID,920.893,VALID,0,VALID,104,VALID,150.955,VALID,20.5219,VALID,36,VALID,0,
2015-12-23, 08:01:04,VALID,920.921,VALID,0,VALID,104,VALID,185.443,VALID,20.5999,VALID,17,VALID,0.128516,
2015-12-23, 08:02:04,VALID,920.926,VALID,0,VALID,104,VALID,244.536,VALID,20.5804,VALID,13,VALID,0.173047,
2015-12-23, 08:03:04,VALID,920.925,VALID,0,VALID,104,VALID,223.263,VALID,20.6585,VALID,22,VALID,0.0121094,
2015-12-23, 08:04:04,VALID,920.934,VALID,0,VALID,104,VALID,170.079,VALID,20.678,VALID,340,VALID,0,
2015-12-23, 08:05:04,VALID,920.926,VALID,0,VALID,103.968,VALID,147.624,VALID,20.6975,VALID,348,VALID,0,
2015-12-23, 08:06:04,VALID,920.947,VALID,0,VALID,103.846,VALID,171.691,VALID,20.7365,VALID,54,VALID,0,
2015-12-23, 08:07:04,VALID,920.96,VALID,0,VALID,104,VALID,313.406,VALID,20.7755,VALID,11,VALID,0,
2015-12-23, 08:08:04,VALID,920.971,VALID,0,VALID,103.785,VALID,269.892,VALID,20.834,VALID,320,VALID,0,
2015-12-23, 08:09:04,VALID,920.964,VALID,0,VALID,103.686,VALID,265.057,VALID,20.93,VALID,8,VALID,0,
2015-12-23, 08:10:04,VALID,920.97,VALID,0,VALID,103.686,VALID,339.621,VALID,21.0275,VALID,39,VALID,0,
2015-12-23, 08:11:04,VALID,920.951,VALID,0,VALID,103.861,VALID,233.47,VALID,21.164,VALID,5,VALID,0,
2015-12-23, 08:12:04,VALID,920.954,VALID,0,VALID,102.825,VALID,413.648,VALID,21.2047,VALID,100,VALID,0,
2015-12-23, 08:13:04,VALID,920.984,VALID,0,VALID,103.03,VALID,197.584,VALID,21.3786,VALID,49,VALID,0,
2015-12-23, 08:14:04,VALID,921.009,VALID,0,VALID,101.94,VALID,327.373,VALID,21.5168,VALID,4,VALID,0,
2015-12-23, 08:15:04,VALID,921.027,VALID,0,VALID,101.292,VALID,299.653,VALID,21.6128,VALID,3,VALID,0,
2015-12-23, 08:16:04,VALID,921.035,VALID,0,VALID,100.507,VALID,243.999,VALID,21.712,VALID,3,VALID,0,
2015-12-23, 08:17:04,VALID,921.041,VALID,0,VALID,100.202,VALID,222.94,VALID,21.7688,VALID,3,VALID,0,
2015-12-23, 08:18:04,VALID,921.039,VALID,0,VALID,99.1883,VALID,220.577,VALID,21.7883,VALID,9,VALID,0,
2015-12-23, 08:19:04,VALID,921.009,VALID,0,VALID,98.9824,VALID,330.596,VALID,21.7493,VALID,9,VALID,0.821094,
2015-12-23, 08:20:04,VALID,921.047,VALID,0,VALID,99.2035,VALID,338.977,VALID,21.7103,VALID,25,VALID,0.00859375,
2015-12-23, 08:21:04,VALID,921.043,VALID,0,VALID,98.7995,VALID,357.134,VALID,21.7298,VALID,312,VALID,0.0289063,
2015-12-23, 08:22:04,VALID,921.043,VALID,0,VALID,95.3537,VALID,270.967,VALID,21.6128,VALID,336,VALID,0,
2015-12-23, 08:23:04,VALID,921.037,VALID,0,VALID,96.4667,VALID,368.523,VALID,21.5136,VALID,346,VALID,0.003125,
2015-12-23, 08:24:04,VALID,921.028,VALID,0,VALID,97.999,VALID,320.39,VALID,21.5152,VALID,321,VALID,0.233984,
2015-12-23, 08:25:04,VALID,921.032,VALID,0,VALID,97.4654,VALID,250.875,VALID,21.4177,VALID,360,VALID,1.46445,
2015-12-23, 08:26:04,VALID,921.018,VALID,0,VALID,100.019,VALID,215.097,VALID,21.416,VALID,306,VALID,0,
2015-12-23, 08:27:04,VALID,921.021,VALID,0,VALID,99.4017,VALID,206.502,VALID,21.3575,VALID,5,VALID,0.615625,
2015-12-23, 08:28:04,VALID,921.022,VALID,0,VALID,100.393,VALID,229.172,VALID,21.3965,VALID,15,VALID,0,
2015-12-23, 08:29:04,VALID,921.047,VALID,0,VALID,99.6762,VALID,303.951,VALID,21.3965,VALID,12,VALID,1.70117,
2015-12-23, 08:30:04,VALID,920.992,VALID,0,VALID,99.6609,VALID,251.842,VALID,21.3965,VALID,34,VALID,0.755078,
2015-12-23, 08:31:04,VALID,921.041,VALID,0,VALID,98.4945,VALID,322.431,VALID,21.377,VALID,343,VALID,0.655859,
2015-12-23, 08:32:04,VALID,921.012,VALID,0,VALID,99.6076,VALID,320.39,VALID,21.4177,VALID,18,VALID,0.787109,
2015-12-23, 08:33:04,VALID,920.999,VALID,0,VALID,100.073,VALID,400.326,VALID,21.5347,VALID,28,VALID,0.0078125,
2015-12-23, 08:34:04,VALID,920.989,VALID,0,VALID,99.9659,VALID,516.47,VALID,21.7477,VALID,357,VALID,0,
2015-12-23, 08:35:04,VALID,920.959,VALID,0,VALID,88.6298,VALID,315.662,VALID,21.8647,VALID,286,VALID,0.966797,
2015-12-23, 08:36:04,VALID,920.95,VALID,0,VALID,89.6514,VALID,323.935,VALID,21.7477,VALID,309,VALID,0,
2015-12-23, 08:37:04,VALID,920.96,VALID,0,VALID,97.9228,VALID,321.571,VALID,21.8062,VALID,30,VALID,0.183984,
2015-12-23, 08:38:04,VALID,920.937,VALID,0,VALID,90.9626,VALID,306.852,VALID,21.8452,VALID,335,VALID,0,
2015-12-23, 08:39:04,VALID,920.92,VALID,0,VALID,90.1469,VALID,334.357,VALID,21.9623,VALID,315,VALID,0.222266,
2015-12-23, 08:40:04,VALID,920.915,VALID,0,VALID,91.2828,VALID,451.897,VALID,22.0013,VALID,11,VALID,0.649219,
2015-12-23, 08:41:04,VALID,920.902,VALID,0,VALID,88.3478,VALID,608.439,VALID,22.0989,VALID,350,VALID,0,
2015-12-23, 08:42:04,VALID,920.876,VALID,0,VALID,89.2245,VALID,609.084,VALID,22.4128,VALID,43,VALID,0,
2015-12-23, 08:43:04,VALID,920.869,VALID,0,VALID,84.5284,VALID,624.448,VALID,22.6665,VALID,37,VALID,0,
2015-12-23, 08:44:04,VALID,920.895,VALID,0,VALID,81.6544,VALID,646.366,VALID,22.938,VALID,247,VALID,0,
2015-12-23, 08:45:04,VALID,920.901,VALID,0,VALID,82.6683,VALID,661.3,VALID,23.1899,VALID,245,VALID,0,
2015-12-23, 08:46:04,VALID,920.945,VALID,0,VALID,79.5656,VALID,353.911,VALID,23.1899,VALID,281,VALID,0.753906,
2015-12-23, 08:47:04,VALID,920.943,VALID,0,VALID,81.5401,VALID,358.853,VALID,23.0533,VALID,258,VALID,0,
2015-12-23, 08:48:04,VALID,920.977,VALID,0,VALID,81.4714,VALID,324.043,VALID,22.977,VALID,254,VALID,0,
2015-12-23, 08:49:04,VALID,921.018,VALID,0,VALID,81.2809,VALID,261.727,VALID,22.8989,VALID,246,VALID,0,
2015-12-23, 08:50:04,VALID,921.034,VALID,0,VALID,81.8526,VALID,231.858,VALID,22.9575,VALID,263,VALID,0,
2015-12-23, 08:51:04,VALID,921.04,VALID,0,VALID,81.6087,VALID,243.462,VALID,23.0551,VALID,263,VALID,0,
2015-12-23, 08:52:04,VALID,921.029,VALID,0,VALID,82.2414,VALID,259.578,VALID,23.1331,VALID,5,VALID,0,
2015-12-23, 08:53:04,VALID,921.045,VALID,0,VALID,82.4854,VALID,267.206,VALID,23.0728,VALID,27,VALID,0.388672,
2015-12-23, 08:54:04,VALID,921.081,VALID,0,VALID,83.1867,VALID,291.918,VALID,22.9575,VALID,10,VALID,0.364453,
2015-12-23, 08:55:04,VALID,921.102,VALID,0,VALID,82.8284,VALID,223.048,VALID,22.938,VALID,34,VALID,0,
2015-12-23, 08:56:04,VALID,921.128,VALID,0,VALID,84.1015,VALID,199.411,VALID,22.9167,VALID,5,VALID,0.503125,
2015-12-23, 08:57:04,VALID,921.111,VALID,0,VALID,82.5311,VALID,177.385,VALID,22.7996,VALID,4,VALID,0.377734,
2015-12-23, 08:58:04,VALID,921.088,VALID,0,VALID,83.484,VALID,172.658,VALID,22.585,VALID,13,VALID,1.04297,
2015-12-23, 08:59:04,VALID,921.11,VALID,0,VALID,83.9109,VALID,191.353,VALID,22.4679,VALID,36,VALID,0,
2015-12-23, 09:00:04,VALID,921.104,VALID,0,VALID,84.6809,VALID,244.321,VALID,22.3899,VALID,19,VALID,0.0398437,
2015-12-23, 09:01:04,VALID,921.105,VALID,0,VALID,87.6998,VALID,270.644,VALID,22.3313,VALID,36,VALID,0.330469,
2015-12-23, 09:02:04,VALID,921.112,VALID,0,VALID,86.3276,VALID,248.297,VALID,22.3118,VALID,12,VALID,0.276563,
2015-12-23, 09:03:04,VALID,921.104,VALID,0,VALID,85.1154,VALID,239.809,VALID,22.2533,VALID,2,VALID,0.0449219,
2015-12-23, 09:04:04,VALID,921.087,VALID,0,VALID,87.0213,VALID,248.189,VALID,22.255,VALID,1,VALID,0,
2015-12-23, 09:05:04,VALID,921.124,VALID,0,VALID,90.1926,VALID,226.271,VALID,22.3135,VALID,48,VALID,0.279297,
2015-12-23, 09:06:04,VALID,921.134,VALID,0,VALID,87.0365,VALID,234.007,VALID,22.3525,VALID,299,VALID,0,
2015-12-23, 09:07:04,VALID,921.123,VALID,0,VALID,89.1635,VALID,229.602,VALID,22.3899,VALID,29,VALID,0,
2015-12-23, 09:08:04,VALID,921.134,VALID,0,VALID,85.8397,VALID,233.47,VALID,22.4094,VALID,21,VALID,1.29492,
2015-12-23, 09:09:04,VALID,921.096,VALID,0,VALID,86.2361,VALID,252.487,VALID,22.3491,VALID,39,VALID,1.34141,
2015-12-23, 09:10:04,VALID,921.146,VALID,0,VALID,86.2589,VALID,262.694,VALID,22.2923,VALID,23,VALID,0.829297,
2015-12-23, 09:11:04,VALID,921.159,VALID,0,VALID,88.5917,VALID,286.868,VALID,22.2126,VALID,16,VALID,1.78711,
2015-12-23, 09:12:04,VALID,921.169,VALID,0,VALID,92.1366,VALID,272.793,VALID,22.2533,VALID,359,VALID,0.491016,
2015-12-23, 09:13:04,VALID,921.178,VALID,0,VALID,88.9881,VALID,256.247,VALID,22.3118,VALID,41,VALID,1.33008,
2015-12-23, 09:14:04,VALID,921.213,VALID,0,VALID,87.8294,VALID,255.925,VALID,22.3703,VALID,33,VALID,1.25195,
2015-12-23, 09:15:04,VALID,921.225,VALID,0,VALID,86.724,VALID,229.602,VALID,22.3508,VALID,38,VALID,1.12578,
2015-12-23, 09:16:04,VALID,921.199,VALID,0,VALID,86.3962,VALID,241.635,VALID,22.333,VALID,25,VALID,1.97734,
2015-12-23, 09:17:04,VALID,921.232,VALID,0,VALID,85.2908,VALID,270.859,VALID,22.2728,VALID,18,VALID,1.00508,
2015-12-23, 09:18:04,VALID,921.232,VALID,0,VALID,86.2742,VALID,314.265,VALID,22.1947,VALID,25,VALID,1.5918,
2015-12-23, 09:19:04,VALID,921.286,VALID,0,VALID,87.6617,VALID,291.595,VALID,22.2142,VALID,42,VALID,0.0804688,
2015-12-23, 09:20:04,VALID,921.283,VALID,0,VALID,89.3236,VALID,365.945,VALID,22.3118,VALID,47,VALID,0.692187,
2015-12-23, 09:21:04,VALID,921.314,VALID,0,VALID,88.5002,VALID,291.058,VALID,22.4679,VALID,46,VALID,0.009375,
2015-12-23, 09:22:04,VALID,921.312,VALID,0,VALID,86.9832,VALID,266.454,VALID,22.6045,VALID,21,VALID,0,
2015-12-23, 09:23:04,VALID,921.307,VALID,0,VALID,85.2832,VALID,235.081,VALID,22.7216,VALID,2,VALID,0.583203,
2015-12-23, 09:24:04,VALID,921.309,VALID,0,VALID,83.202,VALID,251.627,VALID,22.5655,VALID,11,VALID,2.01445,
2015-12-23, 09:25:04,VALID,921.288,VALID,0,VALID,85.1307,VALID,285.579,VALID,22.3881,VALID,23,VALID,0.212109,
2015-12-23, 09:26:04,VALID,921.341,VALID,0,VALID,88.0733,VALID,269.355,VALID,22.3508,VALID,17,VALID,0.571484,
2015-12-23, 09:27:04,VALID,921.325,VALID,0,VALID,92.8075,VALID,261.404,VALID,22.4094,VALID,35,VALID,0.373047,
2015-12-23, 09:28:04,VALID,921.3,VALID,0,VALID,89.5446,VALID,277.521,VALID,22.5069,VALID,36,VALID,0.905078,
2015-12-23, 09:29:04,VALID,921.295,VALID,0,VALID,86.3352,VALID,296,VALID,22.5459,VALID,35,VALID,1.94492,
2015-12-23, 09:30:04,VALID,921.361,VALID,0,VALID,86.198,VALID,215.957,VALID,22.6062,VALID,20,VALID,0.141016,
2015-12-23, 09:31:04,VALID,921.378,VALID,0,VALID,84.7038,VALID,190.171,VALID,22.6435,VALID,40,VALID,0.362109,
2015-12-23, 09:32:04,VALID,921.358,VALID,0,VALID,83.3392,VALID,369.92,VALID,22.6435,VALID,318,VALID,0.326562,
2015-12-23, 09:33:04,VALID,921.4,VALID,0,VALID,86.0607,VALID,291.81,VALID,22.5442,VALID,10,VALID,1.10898,
2015-12-23, 09:34:04,VALID,921.355,VALID,0,VALID,85.7024,VALID,633.151,VALID,22.5069,VALID,28,VALID,1.97656,
2015-12-23, 09:35:04,VALID,921.334,VALID,0,VALID,87.3796,VALID,281.388,VALID,22.5637,VALID,33,VALID,1.51484,
2015-12-23, 09:36:04,VALID,921.334,VALID,0,VALID,87.1585,VALID,364.225,VALID,22.7216,VALID,23,VALID,1.26055,
2015-12-23, 09:37:04,VALID,921.303,VALID,0,VALID,84.6733,VALID,258.611,VALID,22.8191,VALID,2,VALID,1.37773,
2015-12-23, 09:38:04,VALID,921.313,VALID,0,VALID,86.5791,VALID,317.811,VALID,22.8191,VALID,337,VALID,0.475,
2015-12-23, 09:39:04,VALID,921.276,VALID,0,VALID,85.3213,VALID,388.185,VALID,22.915,VALID,13,VALID,0.0078125,
2015-12-23, 09:40:04,VALID,921.304,VALID,0,VALID,82.4396,VALID,372.176,VALID,23.0728,VALID,313,VALID,0.157813,
2015-12-23, 09:41:04,VALID,921.262,VALID,0,VALID,82.2719,VALID,497.882,VALID,23.0924,VALID,22,VALID,1.02031,
2015-12-23, 09:42:04,VALID,921.271,VALID,0,VALID,82.4396,VALID,966.326,VALID,22.954,VALID,342,VALID,1.33125,
2015-12-23, 09:43:04,VALID,921.331,VALID,0,VALID,82.6683,VALID,534.09,VALID,22.915,VALID,308,VALID,0.358594,
2015-12-23, 09:44:04,VALID,921.291,VALID,0,VALID,83.3087,VALID,346.82,VALID,23.0143,VALID,35,VALID,0.106641,
2015-12-23, 09:45:04,VALID,921.332,VALID,0,VALID,81.4638,VALID,339.084,VALID,23.0924,VALID,338,VALID,0.136328,
2015-12-23, 09:46:04,VALID,921.281,VALID,0,VALID,82.8665,VALID,365.73,VALID,23.1704,VALID,13,VALID,0.450781,
2015-12-23, 09:47:04,VALID,921.281,VALID,0,VALID,82.6988,VALID,358.639,VALID,23.2698,VALID,14,VALID,0.0425781,
2015-12-23, 09:48:04,VALID,921.27,VALID,0,VALID,80.0764,VALID,291.81,VALID,23.229,VALID,18,VALID,0.849219,
2015-12-23, 09:49:04,VALID,921.279,VALID,0,VALID,82.3786,VALID,296.645,VALID,23.2112,VALID,14,VALID,0,
2015-12-23, 09:50:04,VALID,921.239,VALID,0,VALID,82.4549,VALID,571.265,VALID,23.3478,VALID,357,VALID,0.245703,
2015-12-23, 09:51:04,VALID,921.285,VALID,0,VALID,81.7916,VALID,918.192,VALID,23.5004,VALID,344,VALID,0,
2015-12-23, 09:52:04,VALID,921.25,VALID,0,VALID,82.8284,VALID,464.361,VALID,23.7755,VALID,352,VALID,0.234766,
2015-12-23, 09:53:04,VALID,921.266,VALID,0,VALID,79.8629,VALID,926.358,VALID,23.9316,VALID,9,VALID,0.580078,
2015-12-23, 09:54:04,VALID,921.245,VALID,0,VALID,78.3001,VALID,554.504,VALID,24.2245,VALID,296,VALID,0,
2015-12-23, 09:55:04,VALID,921.218,VALID,0,VALID,76.9355,VALID,290.628,VALID,24.2226,VALID,21,VALID,1.49922,
2015-12-23, 09:56:04,VALID,921.251,VALID,0,VALID,79.0472,VALID,323.505,VALID,24.1464,VALID,8,VALID,1.11484,
2015-12-23, 09:57:04,VALID,921.236,VALID,0,VALID,77.2709,VALID,363.151,VALID,23.9512,VALID,45,VALID,1.34258,
2015-12-23, 09:58:04,VALID,921.241,VALID,0,VALID,77.6064,VALID,283,VALID,23.8127,VALID,278,VALID,0.187891,
2015-12-23, 09:59:04,VALID,921.245,VALID,0,VALID,78.5364,VALID,235.189,VALID,23.7169,VALID,7,VALID,1.6793,
2015-12-23, 10:00:04,VALID,921.241,VALID,0,VALID,79.8172,VALID,416.334,VALID,23.6566,VALID,23,VALID,1.42461,
2015-12-23, 10:01:04,VALID,921.253,VALID,0,VALID,80.0992,VALID,245.61,VALID,23.6761,VALID,9,VALID,1.31133,
2015-12-23, 10:02:04,VALID,921.247,VALID,0,VALID,80.4957,VALID,304.381,VALID,23.756,VALID,360,VALID,0.0078125,
2015-12-23, 10:03:04,VALID,921.223,VALID,0,VALID,79.6342,VALID,182.113,VALID,23.8145,VALID,10,VALID,0,
2015-12-23, 10:04:04,VALID,921.233,VALID,0,VALID,78.3916,VALID,175.989,VALID,23.7755,VALID,357,VALID,1.15352,
2015-12-23, 10:05:04,VALID,921.216,VALID,0,VALID,78.5593,VALID,176.203,VALID,23.5608,VALID,11,VALID,0.307031,
2015-12-23, 10:06:04,VALID,921.225,VALID,0,VALID,79.0015,VALID,216.279,VALID,23.4241,VALID,257,VALID,0,
2015-12-23, 10:07:04,VALID,921.184,VALID,0,VALID,78.8337,VALID,252.809,VALID,23.2857,VALID,251,VALID,0,
2015-12-23, 10:08:04,VALID,921.193,VALID,0,VALID,79.0624,VALID,370.242,VALID,23.2662,VALID,357,VALID,0.43125,
2015-12-23, 10:09:04,VALID,921.16,VALID,0,VALID,79.3293,VALID,317.489,VALID,23.3248,VALID,16,VALID,0,
2015-12-23, 10:10:04,VALID,921.141,VALID,0,VALID,79.84,VALID,212.519,VALID,23.5004,VALID,16,VALID,0,
2015-12-23, 10:11:04,VALID,921.13,VALID,0,VALID,80.0992,VALID,191.46,VALID,23.6779,VALID,355,VALID,0,
2015-12-23, 10:12:04,VALID,921.12,VALID,0,VALID,79.436,VALID,179.104,VALID,23.6388,VALID,16,VALID,0,
2015-12-23, 10:13:04,VALID,921.089,VALID,0,VALID,80.2822,VALID,826.115,VALID,23.6566,VALID,359,VALID,0,
2015-12-23, 10:14:04,VALID,921.063,VALID,0,VALID,81.3266,VALID,239.057,VALID,23.7346,VALID,35,VALID,0.424219,
2015-12-23, 10:15:04,VALID,921.037,VALID,0,VALID,81.4028,VALID,750.154,VALID,23.7737,VALID,30,VALID,0.7375,
2015-12-23, 10:16:04,VALID,921.046,VALID,0,VALID,79.1768,VALID,228.635,VALID,23.8713,VALID,333,VALID,0,
2015-12-23, 10:17:04,VALID,921.042,VALID,0,VALID,76.6687,VALID,829.553,VALID,23.8713,VALID,328,VALID,0,
2015-12-23, 10:18:04,VALID,921.027,VALID,0,VALID,77.7436,VALID,375.937,VALID,23.928,VALID,313,VALID,0,
2015-12-23, 10:19:04,VALID,921.02,VALID,0,VALID,79.3293,VALID,915.614,VALID,23.9512,VALID,247,VALID,0,
2015-12-23, 10:20:04,VALID,920.994,VALID,0,VALID,78.2467,VALID,281.388,VALID,23.9103,VALID,252,VALID,0,
2015-12-23, 10:21:04,VALID,920.973,VALID,0,VALID,79.2073,VALID,240.131,VALID,23.8322,VALID,234,VALID,0,
2015-12-23, 10:22:04,VALID,920.947,VALID,0,VALID,77.1337,VALID,207.684,VALID,23.756,VALID,247,VALID,0,
2015-12-23, 10:23:04,VALID,920.922,VALID,0,VALID,76.966,VALID,217.676,VALID,23.6761,VALID,296,VALID,0,
2015-12-23, 10:24:04,VALID,920.905,VALID,0,VALID,78.0257,VALID,355.093,VALID,23.5217,VALID,311,VALID,0,
2015-12-23, 10:25:04,VALID,920.835,VALID,0,VALID,79.1692,VALID,250.768,VALID,23.4809,VALID,311,VALID,0,
2015-12-23, 10:26:04,VALID,920.834,VALID,0,VALID,78.971,VALID,262.264,VALID,23.5998,VALID,285,VALID,0,
2015-12-23, 10:27:04,VALID,920.808,VALID,0,VALID,79.436,VALID,826.115,VALID,23.7346,VALID,36,VALID,0,
2015-12-23, 10:28:04,VALID,920.785,VALID,0,VALID,79.8629,VALID,549.561,VALID,23.9298,VALID,33,VALID,0.351563,
2015-12-23, 10:29:04,VALID,920.76,VALID,0,VALID,78.5974,VALID,232.932,VALID,24.1055,VALID,15,VALID,0,
2015-12-23, 10:30:04,VALID,920.742,VALID,0,VALID,77.2023,VALID,242.28,VALID,24.1445,VALID,12,VALID,0,
2015-12-23, 10:31:04,VALID,920.727,VALID,0,VALID,78.3154,VALID,260.76,VALID,24.086,VALID,309,VALID,0,
2015-12-23, 10:32:04,VALID,920.729,VALID,0,VALID,77.614,VALID,598.555,VALID,24.1445,VALID,33,VALID,0,
2015-12-23, 10:33:04,VALID,920.742,VALID,0,VALID,77.1109,VALID,351.44,VALID,24.2031,VALID,273,VALID,0,
2015-12-23, 10:34:04,VALID,920.725,VALID,0,VALID,77.736,VALID,445.666,VALID,24.1445,VALID,272,VALID,0,
2015-12-23, 10:35:04,VALID,920.678,VALID,0,VALID,80.0611,VALID,383.028,VALID,24.2617,VALID,177,VALID,0,
2015-12-23, 10:36:04,VALID,920.734,VALID,0,VALID,76.8059,VALID,205.32,VALID,24.4374,VALID,9,VALID,0.0894531,
2015-12-23, 10:37:04,VALID,920.674,VALID,0,VALID,77.3548,VALID,185.873,VALID,24.5155,VALID,353,VALID,0,
2015-12-23, 10:38:04,VALID,920.713,VALID,0,VALID,74.7095,VALID,182.972,VALID,24.4374,VALID,353,VALID,0,
2015-12-23, 10:39:04,VALID,920.718,VALID,0,VALID,74.74,VALID,786.147,VALID,24.3769,VALID,334,VALID,0.0355469,
2015-12-23, 10:40:04,VALID,920.678,VALID,0,VALID,72.7274,VALID,265.487,VALID,24.2421,VALID,270,VALID,1.12344,
2015-12-23, 10:41:04,VALID,920.659,VALID,0,VALID,74.031,VALID,243.784,VALID,24.1055,VALID,247,VALID,0.329688,
2015-12-23, 10:42:04,VALID,920.614,VALID,0,VALID,76.257,VALID,756.601,VALID,24.0469,VALID,246,VALID,0,
2015-12-23, 10:43:04,VALID,920.619,VALID,0,VALID,79.3598,VALID,229.494,VALID,23.889,VALID,324,VALID,0.117188,
2015-12-23, 10:44:04,VALID,920.645,VALID,0,VALID,77.7588,VALID,784.428,VALID,24.1055,VALID,37,VALID,0,
2015-12-23, 10:45:04,VALID,920.627,VALID,0,VALID,77.4996,VALID,809.784,VALID,24.3202,VALID,278,VALID,0,
2015-12-23, 10:46:04,VALID,920.583,VALID,0,VALID,73.7184,VALID,445.666,VALID,24.5155,VALID,335,VALID,0.101172,
2015-12-23, 10:47:04,VALID,920.588,VALID,0,VALID,72.9332,VALID,793.453,VALID,24.5722,VALID,276,VALID,0.430078,
2015-12-23, 10:48:04,VALID,920.626,VALID,0,VALID,74.1682,VALID,811.933,VALID,24.654,VALID,264,VALID,0,
2015-12-23, 10:49:04,VALID,920.606,VALID,0,VALID,74.7476,VALID,329.522,VALID,24.6345,VALID,260,VALID,0.00351562,
2015-12-23, 10:50:04,VALID,920.601,VALID,0,VALID,72.8265,VALID,805.594,VALID,24.7126,VALID,216,VALID,0.0289063,
2015-12-23, 10:51:04,VALID,920.62,VALID,0,VALID,75.3575,VALID,432.88,VALID,24.8883,VALID,239,VALID,0.571094,
2015-12-23, 10:52:04,VALID,920.651,VALID,0,VALID,72.1556,VALID,738.121,VALID,24.7497,VALID,243,VALID,1.67383,
2015-12-23, 10:53:04,VALID,920.636,VALID,0,VALID,74.496,VALID,610.158,VALID,24.5368,VALID,360,VALID,0.0121094,
2015-12-23, 10:54:04,VALID,920.585,VALID,0,VALID,75.7386,VALID,374.11,VALID,24.5564,VALID,360,VALID,0,
2015-12-23, 10:55:04,VALID,920.616,VALID,0,VALID,71.5991,VALID,456.517,VALID,24.6521,VALID,337,VALID,0.140625,
2015-12-23, 10:56:04,VALID,920.596,VALID,0,VALID,72.2242,VALID,360.358,VALID,24.6326,VALID,270,VALID,0.078125,
2015-12-23, 10:57:04,VALID,920.602,VALID,0,VALID,73.322,VALID,297.827,VALID,24.6716,VALID,243,VALID,0,
2015-12-23, 10:58:04,VALID,920.556,VALID,0,VALID,72.6283,VALID,338.01,VALID,24.8083,VALID,166,VALID,0,
2015-12-23, 10:59:04,VALID,920.544,VALID,0,VALID,72.4911,VALID,545.586,VALID,24.9469,VALID,127,VALID,0,
2015-12-23, 11:00:04,VALID,920.557,VALID,0,VALID,71.1341,VALID,472.204,VALID,25.0817,VALID,128,VALID,0,
2015-12-23, 11:01:04,VALID,920.579,VALID,0,VALID,71.6296,VALID,313.836,VALID,25.0036,VALID,255,VALID,1.69375,
2015-12-23, 11:02:04,VALID,920.547,VALID,0,VALID,72.9866,VALID,346.068,VALID,24.7497,VALID,232,VALID,0.405859,
2015-12-23, 11:03:04,VALID,920.531,VALID,0,VALID,73.2153,VALID,1017.68,VALID,24.8474,VALID,197,VALID,0.539453,
2015-12-23, 11:04:04,VALID,920.543,VALID,0,VALID,74.2368,VALID,995.12,VALID,25.0621,VALID,171,VALID,0,
2015-12-23, 11:05:04,VALID,920.554,VALID,0,VALID,70.204,VALID,941.399,VALID,25.316,VALID,147,VALID,0.135547,
2015-12-23, 11:06:04,VALID,920.513,VALID,0,VALID,69.9372,VALID,666.028,VALID,25.0621,VALID,253,VALID,1.52813,
2015-12-23, 11:07:04,VALID,920.518,VALID,0,VALID,71.5686,VALID,837.934,VALID,24.945,VALID,239,VALID,0,
2015-12-23, 11:08:04,VALID,920.537,VALID,0,VALID,73.6956,VALID,852.975,VALID,25.1012,VALID,296,VALID,0.774609,
2015-12-23, 11:09:04,VALID,920.487,VALID,0,VALID,73.2991,VALID,862.752,VALID,25.2379,VALID,352,VALID,0.0773437,
2015-12-23, 11:10:04,VALID,920.473,VALID,0,VALID,71.096,VALID,909.274,VALID,25.2593,VALID,255,VALID,0.0183594,